Regional Weather Roundup
Issued by NWS

Home | Current Version | Previous Version | Text Only | Print | Product List | Glossary Off
Versions: 1 2 3 4 5 6 7 8 9 10 11 12 13 14 15 16 17 18 19 20 21 22 23 24 25 26 27 28 29 30 31 32 33 34 35 36 37 38 39 40 41 42 43 44 45 46 47 48 49 50

000
ASUS45 KBOI 251210
RWRID
WEATHER ROUNDUP FOR IDAHO
NATIONAL WEATHER SERVICE BOISE ID
500 AM MST SUN JAN 25 2015

NOTE: "FAIR" INDICATES FEW OR NO CLOUDS BELOW 12000 FEET
WITH NO SIGNIFICANT WEATHER AND/OR OBSTRUCTIONS TO VISIBILITY

IDZ012-014-251300-
SOUTHWEST IDAHO


CITY           SKY/WX    TMP DP  RH WIND       PRES   REMARKS
BOISE          CLEAR     30  27  88 CALM      30.45F
CALDWELL       CLOUDY    27  21  80 CALM      30.49S VSB 3/4
MOUNTAIN HOME  CLEAR     28  26  91 E6        30.44F WCI  22
$$

IDZ016-017-251300-
SOUTHCENTRAL IDAHO


CITY           SKY/WX    TMP DP  RH WIND       PRES   REMARKS
BURLEY         MOCLDY    30  27  88 NW3       30.41F
JEROME         PTCLDY    26  24  92 NE9       30.42F WCI  17
TWIN FALLS     PTCLDY    33  28  81 NW5       30.41F WCI  29
$$

IDZ019>023-251300-
SOUTHEAST IDAHO


CITY           SKY/WX    TMP DP  RH WIND       PRES   REMARKS
IDAHO FALLS    CLOUDY    27  25  92 N8        30.45S FOG     WCI  19
POCATELLO      CLOUDY    31  30  96 N3        30.44S
REXBURG        CLOUDY    26  26 100 NE3       30.44R FOG
$$

IDZ006-010-011-018-031-032-251300-
CENTRAL IDAHO MOUNTAINS


CITY           SKY/WX    TMP DP  RH WIND       PRES   REMARKS
MCCALL         CLOUDY    33  32  96 CALM      30.40S
HAILEY         CLEAR     21  21 100 SE7       30.41R WCI  13
STANLEY          N/A     26  23  88 S8        30.44R WCI  18
SALMON         CLEAR     25  18  74 CALM      30.39R
CHALLIS        CLEAR     26  25  96 CALM      30.38R
$$

IDZ002-004-006-007-026-251300-
NORTHERN IDAHO


CITY           SKY/WX    TMP DP  RH WIND       PRES   REMARKS
LEWISTON       CLOUDY    47  39  74 CALM      30.26F
LOWELL           N/A     36  35  96 CALM      30.38S
COEUR D`ALENE  CLOUDY    39  37  93 S5        30.21S
MULLAN PASS    CLOUDY    38  37  97 VRB7      30.22S WCI  33
$$



USA.gov is the U.S. government's official web portal to all federal, state and local government web resources and services.